Location: Kearney
(40.6990°N, 99.0810°W)
Time: 10:26:24
(UTC-05:00)

Daily predictions for brighter satellites

Satellite Brightness Start Highest point End
(mag) Time Altitude Azimuth Time Altitude Azimuth Time Altitude Azimuth
Meteor 2-3 Rocket 4.1 21:17:11 10° SSW 21:22:47 74° W 21:28:24 10° N
Cosmos 1674 Rocket 3.9 21:22:53 10° N 21:27:13 47° E 21:31:29 10° SSE
Resurs 01 Rocket 4.3 21:28:08 10° SW 21:31:25 20° W 21:34:43 10° NW
SL-27 R/B 2.5 21:27:52 10° NNW 21:31:32 68° ENE 21:35:05 10° SSE
Cosmos 1606 3.7 21:30:24 10° NNE 21:33:56 31° ENE 21:37:27 10° SE
Cosmos 1340 Rocket 4.2 21:32:54 10° SSW 21:36:42 43° WNW 21:40:35 10° N
NOSS 2-2 (C) 4.2 21:33:12 10° SW 21:37:16 62° NW 21:42:00 10° NNE
PSLV R/B 4.5 21:34:23 10° W 21:37:29 32° SSW 21:40:37 10° SE
Meteor 1-27 Rocket 4.1 21:32:29 10° N 21:37:48 44° ENE 21:43:02 10° SSE
Sich 1 Rocket 3.9 21:34:16 10° SSE 21:38:41 50° E 21:43:08 10° NNE
Cosmos 1892 3.3 21:35:56 10° SSW 21:39:43 63° W 21:43:34 10° N
Cosmos 1356 Rocket 4.0 21:36:28 10° SSW 21:40:40 63° WNW 21:44:55 10° N
Cosmos 1782 2.8 21:41:23 10° N 21:45:26 77° E 21:49:27 10° SSE
SL-08 ROCKET BODY 4.5 21:40:55 10° S 21:46:57 88° W 21:52:55 10° N
BREEZE-M DEB (TANK) 3.5 21:45:08 10° W 21:47:04 24° NNW 21:48:54 10° NE
ERBS 4.1 21:44:27 10° WNW 21:47:28 27° SW 21:50:26 10° S
CZ-4 DEB 3.2 21:44:48 10° S 21:47:56 61° W 21:51:04 10° NNW
GPS 2-05 Rocket1 4.0 21:44:47 10° SW 21:48:02 29° SSE 21:50:39 13° ESE
COSMOS 2487 3.7 21:46:38 10° N 21:49:49 28° ENE 21:52:14 14° ESE
H-2A R/B 4.4 21:46:46 10° SSW 21:50:08 33° W 21:53:32 10° NNW
Coronas F rocket 3.5 21:48:57 10° SW 21:51:18 28° WNW 21:53:40 10° NNW
Envisat 3.1 21:46:34 10° SSE 21:51:32 59° ENE 21:56:32 10° N
Cosmos 1975 Rocket 3.9 21:53:41 10° NNE 21:57:33 31° ENE 22:00:24 16° SE
Cosmos 1939 Rocket 2.7 21:53:58 10° SSE 21:57:49 77° ENE 22:01:46 10° N
Atlas Centaur 2 3.0 21:57:24 10° SW 21:59:27 15° S 22:00:49 12° SSE
TIMED 4.4 21:55:13 10° SSW 21:59:33 74° ESE 22:03:56 10° NNE
Cosmos 2341 Rocket 4.2 21:55:04 10° SSE 22:01:09 53° E 22:07:12 10° NNE
Cosmos 2084 3.0 22:02:17 10° SSW 22:06:08 75° ESE 22:09:58 10° NE
Cosmos 1908 Rocket 3.5 22:02:34 10° S 22:06:58 81° E 22:11:25 10° N
ARGOS 4.1 22:05:13 16° ESE 22:08:42 31° ENE 22:13:22 10° N
ERS-1 Rocket 3.4 22:03:58 10° S 22:08:57 64° WSW 22:13:58 10° NNW
Cosmos 1733 Rocket 4.4 22:04:55 10° SSW 22:09:05 41° WNW 22:13:15 10° N
Cosmos 1378 Rocket 3.5 22:05:18 10° N 22:09:37 68° E 22:13:08 15° SSE
ATLAS 5 CENTAUR R/B 3.6 22:04:15 10° NW 22:09:53 39° WSW 22:15:48 10° S
Cosmos 407 Rocket 3.8 22:04:49 10° NNW 22:10:04 69° WSW 22:15:20 10° S
deb Chang Zheng 4 3.6 22:10:02 10° NNE 22:14:27 86° WNW 22:18:54 10° SSW
Timation 2 Rocket 4.3 22:09:35 10° NNW 22:15:23 48° ENE 22:19:21 20° SE
Cosmos 962 Rocket 4.5 22:09:34 10° S 22:15:39 68° E 22:21:51 10° NNE
Cosmos 1140 Rocket 3.8 22:10:51 10° N 22:15:51 51° ENE 22:19:07 21° SE
H-2A R/B 3.7 22:13:15 14° E 22:16:00 20° ENE 22:19:44 10° NNE
YAOGAN 6 2.9 22:18:37 26° SE 22:20:16 47° ENE 22:23:41 10° N
Cosmos 1452 Rocket 3.6 22:15:07 10° SSW 22:20:23 79° WNW 22:25:41 10° NNE
Cosmos 1408 2.5 22:18:26 10° S 22:22:06 89° E 22:25:46 10° N
USA 245 3.9 22:21:41 26° ESE 22:22:55 36° ENE 22:26:38 10° N
Cosmos 1242 Rocket 3.0 22:19:45 10° N 22:23:16 43° ENE 22:24:43 29° SE
CZ-4 SHROUD 3.2 22:23:22 32° SE 22:24:35 60° ENE 22:27:38 10° N
Nimbus 7 Rocket 4.5 22:20:21 10° NNE 22:26:19 87° WNW 22:32:19 10° SSW
Cosmos 1825 2.3 22:23:04 10° S 22:26:52 78° W 22:30:42 10° N
USA 234 4.1 22:22:02 10° ENE 22:27:13 25° SE 22:30:49 16° SSE
Cosmos 2154 Rocket 4.2 22:21:23 10° SSW 22:27:35 76° W 22:33:49 10° N
CZ-4B R/B 3.7 22:23:42 10° NNE 22:28:25 44° E 22:31:08 22° SSE
PSLV R/B 2.9 22:28:01 36° SSE 22:29:03 78° ENE 22:32:00 10° N
Cosmos 1833 Rocket 3.8 22:25:55 10° N 22:30:51 30° ENE 22:33:42 20° ESE
SPOT 1/Viking Rocket 3.8 22:28:03 23° SE 22:31:07 55° ENE 22:36:13 10° N
Cosmos 2278 Rocket 2.2 22:26:34 10° SSW 22:32:15 85° WNW 22:37:57 10° NNE
Cosmos 2151 Rocket 4.4 22:33:23 28° ESE 22:34:39 33° E 22:38:43 10° NNE
Cosmos 1295 Rocket 4.5 22:29:08 11° S 22:35:14 70° E 22:41:29 10° NNE
Cosmos 1844 Rocket 4.1 22:30:04 10° SW 22:35:20 40° WNW 22:40:39 10° N
Cosmos 1184 Rocket 3.0 22:32:43 15° SSW 22:35:24 70° W 22:38:45 10° N
H-2A R/B 2.9 22:32:35 12° S 22:36:21 46° W 22:40:27 10° NNW
MetOp-A 4.1 22:34:03 19° SSE 22:37:55 86° WSW 22:43:18 10° NNW
Cosmos 489 Rocket 4.4 22:36:54 10° NNW 22:43:09 86° WSW 22:47:05 24° SSE
Meteor 1-14 Rocket 4.3 22:41:16 21° SSE 22:44:59 60° E 22:50:29 10° NNE
CZ-3C R/B 4.0 22:33:49 10° WSW 22:47:45 19° SSW 22:50:58 16° S
ISS -2.2 22:46:09 10° WSW 22:49:17 45° NNW 22:52:26 10° NE
Cosmos 1812 4.2 22:48:23 10° NNE 22:51:28 22° ENE 22:51:28 22° ENE
Cosmos 2082 Rocket 2.5 22:46:53 10° NNW 22:52:30 55° ENE 22:54:52 33° SE
Cosmos 1850 Rocket 4.0 22:47:59 10° NNW 22:53:20 83° ENE 22:55:43 34° SSE
Terra 2.8 22:52:21 28° E 22:53:35 32° ENE 22:57:47 10° N
Intercosmos 25 3.1 22:52:28 29° SSW 22:54:08 75° W 22:57:17 10° N
Cosmos 2366 rocket 4.1 22:51:57 27° SSE 22:55:26 60° E 23:01:40 10° NNE
Cosmos 1238 Rocket 4.0 22:52:28 10° NNW 22:55:30 33° W 22:57:47 17° SSW
SL-08 RB Rocket 3.7 22:55:26 39° SSE 22:57:02 71° ENE 23:01:41 10° N
SPOT 5 3.9 22:55:02 16° SSW 22:59:01 46° W 23:04:11 10° NNW
Okean 2 Rocket 4.0 23:02:42 12° SSW 23:06:33 45° WNW 23:10:48 10° N
Cosmos 2297 3.7 23:01:42 10° SSW 23:07:24 86° WNW 23:13:11 10° NNE
OAO 3 Rocket 4.3 23:05:04 10° SW 23:08:12 29° SSW 23:08:12 29° SSW
Cosmos 1741 Rocket 4.2 23:08:31 10° NNW 23:13:43 67° WSW 23:15:37 38° S
USA 229 DEB 3.8 23:06:36 10° NNW 23:13:43 72° NE 23:16:52 36° SE
USA 229 3.8 23:06:42 10° NNW 23:13:49 72° NE 23:16:58 36° SE
Lacrosse 5 4.1 23:17:36 12° ENE 23:17:36 12° ENE 23:18:03 10° ENE
DMSP B5D2-2 4.3 23:09:38 10° NNE 23:14:41 48° E 23:15:24 45° SE
NOAA 11 4.3 23:12:14 33° S 23:14:46 70° WSW 23:20:17 10° NNW
CZ-4C R/B 3.1 23:19:47 76° ESE 23:20:00 80° ENE 23:24:06 10° N
Cosmos 1331 Rocket 4.1 23:22:09 50° ESE 23:22:27 51° ESE 23:27:26 10° NNE
Cosmos 2218 Rocket 4.2 23:18:42 21° SSW 23:23:07 73° W 23:29:33 10° N
ASTEX 1 3.9 23:20:07 10° NNE 23:24:50 42° E 23:24:51 42° E
AVUM R/B 4.1 23:22:38 10° NNW 23:25:32 47° NNE 23:25:32 47° NNE
Cosmos 1110 Rocket 3.9 23:28:13 56° SSE 23:29:07 69° ESE 23:34:19 10° NNE
Timation 1 Rocket 4.2 23:27:36 40° S 23:29:50 72° ESE 23:35:50 10° NNE
DELTA 2 DEB (DPAF) 4.1 23:29:45 64° SSW 23:30:23 77° WSW 23:34:53 10° NNW
CARTOSAT-1 3.4 23:35:50 84° SSE 23:35:59 90° NNW 23:40:19 10° NNW
Cosmos 1727 Rocket 4.0 23:32:25 10° N 23:38:36 75° W 23:40:46 42° SSW
Cosmos 2369 Rocket 3.8 23:42:13 21° ENE 23:42:13 21° ENE 23:44:56 10° NE
Cosmos 1536 Rocket 4.2 23:44:00 10° NNW 23:48:19 47° W 23:48:50 45° WSW
ARGOS 4.4 23:46:44 25° SW 23:48:52 33° W 23:53:40 10° NNW
